Showing default

VIGORIDE 3, 52760

Orbit data source: Space-Track

VIGORIDE 3, 52760 is a payload satellite owned by Momentus (US) in SSO that was launched on Wed, 25 May 2022 UTC via an FALCON 9 launch vehicle from the Air Force Eastern Test Range (AFETR). Payload-class satellites include a variety of spacecraft equipped with specific instruments for various scientific and technological missions. These include communications satellites like Starlink; space stations such as the ISS; scientific satellites like the Hubble; Earth observation satellites from companies like Planet Labs, Umbra, and HawkEye 360; GPS; miniature CubeSats for education and research; and military/defense satellites.

Loading next visibility...
Identifier
52760, 2022-057AE
Orbit
SSO
Country
Flag of USUS
Related business
Manufacturer
Momentus
Mission
Operational Commercial Technology
Bus & Motor
VIGORIDE, AOCS
Mass
412 kg wet, 292 kg dry
Launch date (UTC)
2022-05-25 (4 years ago)
Launch vehicle
FALCON 9
Launch site
Air Force Eastern Test Range (AFETR)
Object type
Payload
Rocket body
Debris
Shape & HBR
Box + 2 Pan, 3.3 m
Radar Cross Section
1.548 m², Large (>1 m²)

Expand to show TLE details & history
Last TLE update: 17 hours ago

TLE from 17 hours ago
0 VIGORIDE 3
1 52760U 22057AE  25348.90640950  .00004615  00000-0  18898-3 0  9994
2 52760  97.6340 119.6626 0010225  55.2360 304.9838 15.24781385197054
Epoch: 2025-12-14T21:45Z
TLE epoch observation values (Epoch: 2025-12-14T21:45:13.780Z)
Latitude
-0.00006°
Longitude
69.54259°
Altitude
490.509 km
Speed
7.622 km/s
True Right ascension
07h 58m 39s
True Declination
0° 00' 00"
Sunlit
Object was in full shadow at epoch
Visualization orbit readout
Latitude
Unknown
Longitude
Unknown
Altitude
Unknown
Speed
Unknown
Apparent Right ascension
Unknown
Apparent Declination
Unknown
Sunlit
N/A
Visualization observer readout
Local Sidereal Time
13:22:57
Azimuth
Unknown
Elevation
Unknown
Doppler factor
Unknown
Orbital elements
Apogee altitude
495.432 km
Perigee altitude
481.39 km
Semi-major axis
6,866.548 km
Eccentricity
0.00102
Inclination
97.634°
RAAN
119.6626°
Arg. of periapsis
55.236°
True anomaly
304.88773°
Mean anomaly
304.9838°
Eccentric anomaly
304.93577°
Mean motion
3.81448 °/min
Orbital period
94.38 mins
BSTAR
0.00018898
Loading maneuver chart data...
Computing Atmospheric mass density...

Documentation

Showing up to 5 results
|